Alamogordo, NM

1:46 AM MDT on April 30, 2017 (GMT -0600)
Alamogordo-White Sands Regional

Weather History for KALM - February, 2014

Change the Weather History Date:

Friday, February 21, 2014

  Actual Average Record
Temperature  
Mean Temperature 45 °F -  
Max Temperature 64 °F 58 °F 79 °F (1972)
Min Temperature 26 °F 33 °F 19 °F (1960)
Degree Days  
Heating Degree Days 20    
Moisture  
Dew Point -2 °F    
Average Humidity 14    
Maximum Humidity 26    
Minimum Humidity 7    
Precipitation  
Precipitation 0.00 in - - ()
Sea Level Pressure  
Sea Level Pressure 30.04 in    
Wind  
Wind Speed 2 mph (WNW)    
Max Wind Speed 9 mph    
Max Gust Speed -    
Visibility 10 miles    
Events      
Averages and records for this station are not official NWS values.
T = Trace of Precipitation, MM = Missing Value Source: NWS Daily Summary

Daily Weather History Graph

Daily Weather History Graph

Search for Another Location

Airport or City:

Trip Planner

Search our weather history database for the weather conditions in past years. The results will help you decide how hot, cold, wet, or windy it might be!

Date:

Astronomy

Feb. 21, 2014 Rise Set
Actual Time 6:40 AM MST 5:54 PM MST
Civil Twilight 6:15 AM MST 6:19 PM MST
Nautical Twilight 5:47 AM MST 6:48 PM MST
Astronomical Twilight 5:18 AM MST 7:17 PM MST
Moon No Moon Rise 10:28 AM MST (2/21)
Length of Visible Light 12h 03m
Length of Day
11h 13m
Waning Gibbous, 60% of the Moon is Illuminated
Feb 21
Waning Gibbous
Feb 22
Last Quarter
Mar 1
New
Mar 8
First Quarter
Mar 16
Full

Hourly Weather History & Observations

Time (MST) Temp. Windchill Dew Point Humidity Pressure Visibility Wind Dir Wind Speed Gust Speed Precip Events Conditions
12:15 AM 35.6 °F - -9.4 °F 14% 30.12 in 10.0 mi North - - N/A   Clear
12:35 AM 32.0 °F - -5.8 °F 20% 30.11 in 10.0 mi North - - N/A   Clear
12:55 AM 32.0 °F - -7.6 °F 18% 30.12 in 10.0 mi North - - N/A   Clear
1:15 AM 32.0 °F - -5.8 °F 20% 30.12 in 10.0 mi North - - N/A   Clear
1:35 AM 32.0 °F - -4.0 °F 21% 30.12 in 10.0 mi North - - N/A   Clear
1:55 AM 32.0 °F - -7.6 °F 18% 30.12 in 10.0 mi North - - N/A   Clear
2:15 AM 30.2 °F - -7.6 °F 19% 30.11 in 10.0 mi North - - N/A   Clear
2:35 AM 32.0 °F - -7.6 °F 18% 30.10 in 10.0 mi North - - N/A   Clear
2:55 AM 32.0 °F - -4.0 °F 21% 30.10 in 10.0 mi North - - N/A   Clear
3:15 AM 35.6 °F - -4.0 °F 18% 30.10 in 10.0 mi North - - N/A   Clear
3:35 AM 32.0 °F - -4.0 °F 21% 30.11 in 10.0 mi North - - N/A   Clear
3:55 AM 32.0 °F - -4.0 °F 21% 30.10 in 10.0 mi North - - N/A   Clear
4:15 AM 28.4 °F - -4.0 °F 25% 30.09 in 10.0 mi North - - N/A   Clear
4:35 AM 32.0 °F - -4.0 °F 21% 30.10 in 10.0 mi North - - N/A   Clear
4:55 AM 28.4 °F - -5.8 °F 23% 30.10 in 10.0 mi North - - N/A   Clear
5:15 AM 30.2 °F - -5.8 °F 21% 30.10 in 10.0 mi North - - N/A   Clear
5:35 AM 32.0 °F - -4.0 °F 21% 30.11 in 10.0 mi North - - N/A   Clear
5:55 AM 26.6 °F - -4.0 °F 26% 30.11 in 10.0 mi North - - N/A   Clear
6:15 AM 26.6 °F - -7.6 °F 22% 30.11 in 10.0 mi North - - N/A   Clear
6:35 AM 26.6 °F - -7.6 °F 22% 30.11 in 10.0 mi North - - N/A   Clear
6:55 AM 28.4 °F - -7.6 °F 21% 30.11 in 10.0 mi North - - N/A   Clear
7:15 AM 28.4 °F - -5.8 °F 23% 30.11 in 10.0 mi North - - N/A   Clear
7:35 AM 32.0 °F - -4.0 °F 21% 30.11 in 10.0 mi North - - N/A   Clear
7:55 AM 33.8 °F - -5.8 °F 18% 30.12 in 10.0 mi North - - N/A   Clear
8:15 AM 35.6 °F - -4.0 °F 18% 30.13 in 10.0 mi North - - N/A   Clear
8:35 AM 39.2 °F - -0.4 °F 19% 30.12 in 10.0 mi Calm Calm - N/A   Clear
8:55 AM 42.8 °F - -4.0 °F 14% 30.13 in 10.0 mi Calm Calm - N/A   Clear
9:15 AM 44.6 °F 43.1 °F -4.0 °F 13% 30.13 in 10.0 mi South 3.5 mph - N/A   Clear
9:35 AM 44.6 °F - -4.0 °F 13% 30.13 in 10.0 mi Calm Calm - N/A   Clear
9:55 AM 48.2 °F - -4.0 °F 11% 30.13 in 10.0 mi SE 3.5 mph - N/A   Clear
10:15 AM 50.0 °F - -4.0 °F 11% 30.12 in 10.0 mi Calm Calm - N/A   Clear
10:35 AM 51.8 °F - -4.0 °F 10% 30.12 in 10.0 mi Calm Calm - N/A   Clear
10:55 AM 55.4 °F - -2.2 °F 9% 30.11 in 10.0 mi Calm Calm - N/A   Clear
11:15 AM 55.4 °F - -2.2 °F 9% 30.10 in 10.0 mi Calm Calm - N/A   Clear
11:35 AM 57.2 °F - -2.2 °F 9% 30.09 in 10.0 mi Calm Calm - N/A   Clear
11:55 AM 59.0 °F - -0.4 °F 9% 30.08 in 10.0 mi Calm Calm - N/A   Clear
12:15 PM 60.8 °F - -0.4 °F 8% 30.06 in 10.0 mi East 3.5 mph - N/A   Clear
12:35 PM 62.6 °F - -0.4 °F 8% 30.05 in 10.0 mi North 4.6 mph - N/A   Clear
12:55 PM 62.6 °F - -0.4 °F 8% 30.04 in 10.0 mi SW 3.5 mph - N/A   Clear
1:15 PM 62.6 °F - -0.4 °F 8% 30.03 in 10.0 mi WSW 5.8 mph - N/A   Clear
1:35 PM 62.6 °F - -0.4 °F 8% 30.02 in 10.0 mi WNW 6.9 mph - N/A   Clear
1:55 PM 64.4 °F - -0.4 °F 7% 30.01 in 10.0 mi NNW 9.2 mph - N/A   Clear
2:15 PM 64.4 °F - -0.4 °F 7% 30.00 in 10.0 mi West 6.9 mph - N/A   Clear
2:35 PM 64.4 °F - -0.4 °F 7% 30.00 in 10.0 mi West 6.9 mph - N/A   Clear
2:55 PM 64.4 °F - -0.4 °F 7% 29.99 in 10.0 mi WNW 6.9 mph - N/A   Clear
3:15 PM 64.4 °F - -0.4 °F 7% 29.98 in 10.0 mi Calm Calm - N/A   Clear
3:35 PM 64.4 °F - -0.4 °F 7% 29.97 in 10.0 mi Calm Calm - N/A   Clear
3:55 PM 64.4 °F - -0.4 °F 7% 29.97 in 10.0 mi Calm Calm - N/A   Clear
4:15 PM 62.6 °F - -0.4 °F 8% 29.97 in 10.0 mi Calm Calm - N/A   Clear
4:35 PM 62.6 °F - 3.2 °F 9% 29.96 in 10.0 mi Calm Calm - N/A   Clear
4:55 PM 62.6 °F - -0.4 °F 8% 29.95 in 10.0 mi NE 3.5 mph - N/A   Clear
5:15 PM 62.6 °F - -0.4 °F 8% 29.95 in 10.0 mi East 3.5 mph - N/A   Clear
5:35 PM 60.8 °F - 1.4 °F 9% 29.95 in 10.0 mi ESE 3.5 mph - N/A   Clear
5:55 PM 57.2 °F - 8.6 °F 14% 29.95 in 10.0 mi Calm Calm - N/A   Clear
6:15 PM 55.4 °F - -0.4 °F 10% 29.94 in 10.0 mi North - - N/A   Clear
6:35 PM 55.4 °F - 5.0 °F 13% 29.95 in 10.0 mi North - - N/A   Clear
6:55 PM 53.6 °F - 1.4 °F 12% 29.95 in 10.0 mi North - - N/A   Clear
7:15 PM 48.2 °F - -0.4 °F 13% 29.95 in 10.0 mi North - - N/A   Clear
7:35 PM 48.2 °F - -0.4 °F 13% 29.96 in 10.0 mi North - - N/A   Clear
7:55 PM 48.2 °F - -0.4 °F 13% 29.96 in 10.0 mi North - - N/A   Clear
8:15 PM 50.0 °F - -0.4 °F 13% 29.96 in 10.0 mi North - - N/A   Clear
8:35 PM 48.2 °F - -0.4 °F 13% 29.97 in 10.0 mi North - - N/A   Clear
8:55 PM 48.2 °F - -0.4 °F 13% 29.97 in 10.0 mi North - - N/A   Clear
9:15 PM 48.2 °F - -0.4 °F 13% 29.98 in 10.0 mi North - - N/A   Clear
9:35 PM 44.6 °F - -0.4 °F 15% 29.98 in 10.0 mi North - - N/A   Clear
9:55 PM 39.2 °F - -0.4 °F 19% 29.98 in 10.0 mi North - - N/A   Clear
10:15 PM 44.6 °F - -0.4 °F 15% 29.97 in 10.0 mi North - - N/A   Clear
10:35 PM 44.6 °F - 1.4 °F 17% 29.97 in 10.0 mi North - - N/A   Clear
10:55 PM 44.6 °F - 1.4 °F 17% 29.97 in 10.0 mi North - - N/A   Clear
11:15 PM 44.6 °F - 6.8 °F 21% 29.97 in 10.0 mi North - - N/A   Clear
11:35 PM 50.0 °F - 1.4 °F 14% 29.98 in 10.0 mi North - - N/A   Clear
11:55 PM 48.2 °F - 1.4 °F 15% 29.98 in 10.0 mi North - - N/A   Clear